Montague, CA

1:51 AM PDT on October 24, 2017 (GMT -0700)
Siskiyou County

Weather History for KSIY - November, 2011

Change the Weather History Date:

Friday, November 18, 2011

  Actual Average Record
Temperature  
Mean Temperature 33 °F 39 °F  
Max Temperature 41 °F 49 °F 65 °F (2008)
Min Temperature 24 °F 29 °F 15 °F (2000)
Degree Days  
Heating Degree Days 32 26  
Month to date heating degree days 457 417  
Since 1 July heating degree days 904 970  
Cooling Degree Days 0 0  
Month to date cooling degree days 0 0  
Year to date cooling degree days 488 544  
Moisture  
Dew Point 31 °F    
Average Humidity 83    
Maximum Humidity 92    
Minimum Humidity 64    
Precipitation  
Precipitation 0.15 in 0.11 in 1.30 in (1996)
Month to date precipitation 0.33 1.63  
Year to date precipitation 11.12 14.47  
Sea Level Pressure  
Sea Level Pressure 29.80 in    
Wind  
Wind Speed 7 mph (WSW)    
Max Wind Speed 24 mph    
Max Gust Speed 33 mph    
Visibility 8 miles    
Events Rain , Snow    
T = Trace of Precipitation, MM = Missing Value Source: NWS Daily Summary

Daily Weather History Graph

Daily Weather History Graph

Search for Another Location

Airport or City:

Trip Planner

Search our weather history database for the weather conditions in past years. The results will help you decide how hot, cold, wet, or windy it might be!

Date:

Astronomy

Nov. 18, 2011 Rise Set
Actual Time 7:02 AM PST 4:46 PM PST
Civil Twilight 6:32 AM PST 5:17 PM PST
Nautical Twilight 5:58 AM PST 5:50 PM PST
Astronomical Twilight 5:25 AM PST 6:23 PM PST
Moon No Moon Rise 12:42 PM PST (11/18)
Length of Visible Light 10h 44m
Length of Day
9h 44m
Waning Gibbous, 48% of the Moon is Illuminated
Nov 18
Waning Gibbous
Nov 24
New
Dec 2
First Quarter
Dec 10
Full
Dec 17
Last Quarter

Hourly Weather History & Observations

Time (PST) Temp. Windchill Dew Point Humidity Pressure Visibility Wind Dir Wind Speed Gust Speed Precip Events Conditions
12:53 AM 37.9 °F 31.5 °F 28.9 °F 70% 29.85 in 10.0 mi South 9.2 mph - N/A   Mostly Cloudy
1:53 AM 37.9 °F 30.9 °F 28.0 °F 68% 29.82 in 10.0 mi South 10.4 mph 25.3 mph N/A   Mostly Cloudy
2:53 AM 39.9 °F 35.1 °F 28.0 °F 63% 29.81 in 10.0 mi SSW 6.9 mph - N/A   Overcast
4:53 AM 41.0 °F 36.4 °F 32.0 °F 70% 29.77 in 10.0 mi SW 6.9 mph - 0.00 in   Overcast
5:53 AM 39.9 °F 32.5 °F 33.1 °F 77% 29.78 in 10.0 mi WSW 12.7 mph - 0.00 in Rain Light Rain
6:53 AM 37.9 °F 32.7 °F 35.1 °F 89% 29.78 in 10.0 mi West 6.9 mph - 0.01 in Rain Light Rain
7:42 AM 37.4 °F 34.9 °F 35.6 °F 93% 29.72 in 10.0 mi SW 3.5 mph - 0.03 in Rain Light Rain
7:53 AM 37.0 °F 33.3 °F 35.1 °F 93% 29.78 in 10.0 mi SSW 4.6 mph - 0.03 in Rain Light Rain
8:09 AM 37.4 °F 32.8 °F 35.6 °F 93% 29.73 in 4.0 mi West 5.8 mph - 0.02 in Rain Light Rain
8:53 AM 35.1 °F - 34.0 °F 96% 29.79 in 7.0 mi Calm Calm - 0.09 in Rain Light Rain
9:25 AM 35.6 °F 32.8 °F 33.8 °F 93% 29.73 in 10.0 mi WSW 3.5 mph - 0.01 in Rain Light Rain
9:53 AM 37.0 °F 34.5 °F 35.1 °F 93% 29.79 in 10.0 mi WSW 3.5 mph - 0.01 in   Overcast
10:53 AM 39.0 °F 31.8 °F 34.0 °F 82% 29.79 in 10.0 mi SW 11.5 mph - 0.00 in Rain Light Rain
11:19 AM 39.2 °F 32.5 °F 33.8 °F 81% 29.73 in 10.0 mi SW 10.4 mph - 0.00 in Rain Light Rain
11:32 AM 39.2 °F 32.5 °F 35.6 °F 87% 29.72 in 10.0 mi West 10.4 mph - 0.00 in   Scattered Clouds
11:53 AM 41.0 °F 34.7 °F 34.0 °F 76% 29.77 in 10.0 mi WSW 10.4 mph - 0.00 in   Mostly Cloudy
1:53 PM 41.0 °F 36.4 °F 32.0 °F 70% 29.76 in 10.0 mi West 6.9 mph - 0.00 in   Overcast
2:38 PM 35.6 °F 24.5 °F 30.2 °F 81% 29.74 in 2.0 mi WNW 20.7 mph 28.8 mph 0.01 in Snow Light Snow
2:45 PM 33.8 °F 25.8 °F 32.0 °F 93% 29.74 in 1.2 mi West 10.4 mph - 0.01 in Snow Light Snow
2:49 PM 35.6 °F 29.2 °F 33.8 °F 93% 29.74 in 3.0 mi West 8.1 mph - 0.01 in Snow Light Snow
2:53 PM 36.0 °F 29.0 °F 34.0 °F 93% 29.81 in 9.0 mi West 9.2 mph - 0.01 in Snow Light Snow
3:15 PM 35.6 °F 27.5 °F 30.2 °F 81% 29.75 in 9.0 mi WNW 11.5 mph - 0.00 in   Overcast
3:51 PM 35.6 °F 26.2 °F 30.2 °F 81% 29.76 in 2.0 mi WNW 15.0 mph - 0.00 in Snow Light Snow
3:53 PM 35.1 °F 25.5 °F 30.0 °F 82% 29.82 in 2.5 mi WNW 15.0 mph - 0.00 in Snow Light Snow
4:00 PM 35.6 °F 26.2 °F 28.4 °F 75% 29.76 in 8.0 mi West 15.0 mph - 0.00 in Snow Light Snow
4:53 PM 35.1 °F 26.9 °F 27.0 °F 72% 29.84 in 10.0 mi West 11.5 mph - 0.00 in   Clear
5:53 PM 33.1 °F 28.7 °F 26.1 °F 75% 29.87 in 10.0 mi West 4.6 mph - N/A   Clear
6:53 PM 34.0 °F 29.8 °F 25.0 °F 70% 29.89 in 10.0 mi NNW 4.6 mph - N/A   Mostly Cloudy
7:53 PM 30.9 °F 27.5 °F 25.0 °F 79% 29.90 in 10.0 mi West 3.5 mph - N/A   Partly Cloudy
8:53 PM 28.9 °F - 24.1 °F 82% 29.93 in 10.0 mi Calm Calm - N/A   Clear
9:53 PM 26.1 °F - 23.0 °F 88% 29.95 in 10.0 mi Calm Calm - N/A   Mostly Cloudy
10:53 PM 27.0 °F 23.0 °F 25.0 °F 92% 29.95 in 10.0 mi SW 3.5 mph - N/A   Scattered Clouds
11:53 PM 25.0 °F 19.3 °F 23.0 °F 92% 29.96 in 10.0 mi South 4.6 mph - N/A   Mostly Cloudy